Location: Cedarbrook
(36.3103°N, 86.6422°W)
Time: 08:49:01
(UTC+00:00)

Cosmos 2227 Rocket - Pass Details

Date: 29 October 2020
Orbit: 838 x 846 km, 71.0° (Epoch: 04 December)

Event Time Altitude Azimuth Distance (km) Brightness Sun altitude
Rises 23:41:24 0° 342° (NNW) 3,403 5.5 -10.4°
Reaches altitude 10° 23:43:55 10° 347° (NNW) 2,466 4.7 -10.9°
Maximum altitude 23:49:28 56° 65° (ENE) 1,002 2.3 -12.0°
Drops below altitude 10° 23:54:59 10° 143° (SE) 2,457 4.3 -13.1°
Sets 23:57:29 0° 148° (SSE) 3,389 5.1 -13.6°
